Погода в Чаченгсау

Таиланд     13°41′08″N   101°04′08″E
темп.,
°C
ветер,
м/с
пор.,
м/с
влажн.,
%
обл.,
%
осадки,
мм/ч
давл.,
гПа
погр.,
м
29 ноября, пн
пн2901:00+25всв6126491 0.0 1011440
04:00+24св387067 0.0 1010272
07:00+23св297396 0.1 1012367
10:00+24всв51167100 0.0 1013453
13:00+30ссв575198 0.0 10101420
16:00+30св585680 0.0 10081474
19:00+26в6126298 0.0 1010351
22:00+26в5126199 0.0 1011564
30 ноября, вт
вт3001:00+23в31074100 0.2 1010276
04:00+23в2877100 0.3 1009293
07:00+23в41077100 0.3 1011365
10:00+25всв61168100 0.0 1013946
13:00+24всв71266100 0.0 1010694
16:00+23всв91466100 0.0 1010741
19:00+24всв71361100 0.0 1011782
22:00+24всв71461100 0.0 1012637
1 декабря, ср
ср101:00+23всв61362100 0.0 1012569
04:00+22всв61362100 0.0 1011606
07:00+22всв71365100 0.0 1013598
10:00+22всв71368100 0.0 1014684
13:00+25всв6959100 0.0 10121040
16:00+23ссв4869100 0.0 1011426
19:00+22св2471100 0.0 1013119
22:00+22всв2268100 0.0 101467
2 декабря, чт
чт201:00+21с24735 0.0 1012111
04:00+20зсз22815 0.0 101242
07:00+20в24805 0.0 101498
10:00+25всв686099 0.0 1016741
13:00+28всв675141 0.0 10131341
16:00+28всв67555 0.0 10111361
19:00+25всв6126123 0.0 1013370
22:00+23св411645 0.0 1015312
3 декабря, пт
пт301:00+22св37695 0.0 1014148
04:00+20всв23735 0.0 101457
07:00+20всв412721 0.0 1016364
10:00+24всв811600 0.0 1017815
13:00+28всв78500 0.0 10141465
16:00+28св57515 0.0 10121630
19:00+24св6125450 0.0 1015411
22:00+22всв411575 0.0 1016268